Location: Hope
(40.9110°N, 74.9680°W)
Time: 03:58:57
(UTC-04:00)

N. Korean satellite - Pass Details

Date: 01 February 2019
Orbit: 457 x 508 km, 97.2° (Epoch: 21 April)

Event Time Altitude Azimuth Distance (km) Brightness Sun altitude
Rises 05:56:28 0° 17° (NNE) 2,584 10.3 -14.2°
Reaches altitude 10° 05:58:36 10° 22° (NNE) 1,688 9.4 -13.8°
Maximum altitude 06:02:09 50° 99° (E) 621 7.5 -13.2°
Drops below altitude 10° 06:05:36 10° 176° (S) 1,644 9.4 -12.6°
Sets 06:07:40 0° 182° (S) 2,508 10.3 -12.2°
